Location: Klinovec
(50.3970°N, 12.9600°E)
Time: 16:36:07
(UTC+01:00)

N. Korean satellite - Pass Details

Date: 22 November 2019
Orbit: 455 x 507 km, 97.2° (Epoch: 13 December)

Event Time Altitude Azimuth Distance (km) Brightness Sun altitude
Rises 18:02:56 0° 202° (SSW) 2,576 10.7 -16.8°
Reaches altitude 10° 18:05:26 10° 220° (SW) 1,706 10.1 -17.1°
Maximum altitude 18:08:10 20° 268° (W) 1,234 9.6 -17.6°
Drops below altitude 10° 18:10:56 10° 316° (NW) 1,730 9.8 -18.0°
Sets 18:13:30 0° 334° (NNW) 2,624 10.5 -18.4°
